Stündliche Wetter Holzminden

Heute, 21 Juni, Montag

Zeit Temperatur Niederschläge Wind Luftdruck Luftfeuchtigkeit
00:00 +21°C° 0.1 mm 1 m/S 745 mmHg 83%
01:00 +19°C° 0 mm 2 m/S 745 mmHg 87%
02:00 +20°C° 3.8 mm 1 m/S 744 mmHg 91%
03:00 +20°C° 3.8 mm 1 m/S 744 mmHg 95%
04:00 +20°C° 3.8 mm 1 m/S 743 mmHg 99%
05:00 +20°C° 1 mm 1 m/S 743 mmHg 97%
06:00 +20°C° 1 mm 2 m/S 744 mmHg 95%
07:00 +20°C° 1 mm 2 m/S 744 mmHg 93%
08:00 +21°C° 0.4 mm 3 m/S 744 mmHg 89%
09:00 +22°C° 0.4 mm 4 m/S 744 mmHg 84%
10:00 +23°C° 0.4 mm 5 m/S 744 mmHg 80%
11:00 +25°C° 0.2 mm 5 m/S 744 mmHg 74%
12:00 +25°C° 0.2 mm 5 m/S 744 mmHg 68%
13:00 +26°C° 0.2 mm 5 m/S 745 mmHg 62%
14:00 +26°C° 0.2 mm 5 m/S 745 mmHg 66%
15:00 +25°C° 0.2 mm 5 m/S 745 mmHg 69%
16:00 +23°C° 0.2 mm 6 m/S 746 mmHg 73%
17:00 +21°C° 0 mm 5 m/S 746 mmHg 79%
18:00 +19°C° 0 mm 5 m/S 747 mmHg 84%
19:00 +15°C° 0 mm 5 m/S 747 mmHg 90%
20:00 +15°C° 0.1 mm 4 m/S 748 mmHg 91%
21:00 +14°C° 0.1 mm 3 m/S 749 mmHg 92%
22:00 +13°C° 0.1 mm 3 m/S 749 mmHg 93%
23:00 +14°C° 0 mm 2 m/S 750 mmHg 93%

Morgen, 22 Juni, Dienstag

Zeit Temperatur Niederschläge Wind Luftdruck Luftfeuchtigkeit
00:00 +14°C° 0 mm 2 m/S 750 mmHg 93%
01:00 +14°C° 0 mm 2 m/S 750 mmHg 93%
02:00 +13°C° 0 mm 2 m/S 750 mmHg 93%
03:00 +13°C° 0 mm 2 m/S 750 mmHg 92%
04:00 +13°C° 0 mm 2 m/S 750 mmHg 91%
05:00 +12°C° 0 mm 3 m/S 751 mmHg 89%
06:00 +12°C° 0 mm 3 m/S 751 mmHg 86%
07:00 +13°C° 0 mm 3 m/S 752 mmHg 84%
08:00 +14°C° 0 mm 3 m/S 752 mmHg 79%
09:00 +16°C° 0 mm 3 m/S 752 mmHg 75%
10:00 +17°C° 0 mm 3 m/S 752 mmHg 70%
11:00 +18°C° 0 mm 3 m/S 752 mmHg 68%
12:00 +19°C° 0 mm 3 m/S 752 mmHg 66%
13:00 +19°C° 0 mm 3 m/S 752 mmHg 64%
14:00 +20°C° 0 mm 2 m/S 752 mmHg 64%
15:00 +20°C° 0 mm 2 m/S 752 mmHg 63%
16:00 +21°C° 0 mm 2 m/S 752 mmHg 62%
17:00 +20°C° 0 mm 2 m/S 752 mmHg 66%
18:00 +19°C° 0 mm 2 m/S 752 mmHg 70%
19:00 +19°C° 0 mm 3 m/S 752 mmHg 74%
20:00 +17°C° 0 mm 2 m/S 753 mmHg 80%
21:00 +15°C° 0 mm 2 m/S 753 mmHg 85%
22:00 +14°C° 0 mm 2 m/S 753 mmHg 90%
23:00 +13°C° 0 mm 2 m/S 754 mmHg 91%

übermorgen, 23 Juni, Mittwoch

Zeit Temperatur Niederschläge Wind Luftdruck Luftfeuchtigkeit
00:00 +12°C° 0 mm 2 m/S 754 mmHg 92%
01:00 +12°C° 0 mm 1 m/S 754 mmHg 93%
02:00 +11°C° 0 mm 1 m/S 754 mmHg 93%
03:00 +11°C° 0 mm 1 m/S 754 mmHg 92%
04:00 +11°C° 0 mm 1 m/S 754 mmHg 92%
05:00 +12°C° 0 mm 1 m/S 755 mmHg 88%
06:00 +13°C° 0 mm 1 m/S 755 mmHg 83%
07:00 +14°C° 0 mm 1 m/S 755 mmHg 79%
08:00 +16°C° 0 mm 1 m/S 755 mmHg 75%
09:00 +18°C° 0 mm 1 m/S 755 mmHg 71%
10:00 +19°C° 0 mm 1 m/S 755 mmHg 67%
11:00 +20°C° 0 mm 1 m/S 755 mmHg 66%
12:00 +20°C° 0 mm 2 m/S 755 mmHg 64%
13:00 +21°C° 0 mm 2 m/S 755 mmHg 63%
14:00 +21°C° 0 mm 2 m/S 755 mmHg 62%
15:00 +23°C° 0 mm 2 m/S 755 mmHg 62%
16:00 +22°C° 0 mm 3 m/S 754 mmHg 62%
17:00 +21°C° 0 mm 3 m/S 754 mmHg 67%
18:00 +20°C° 0 mm 3 m/S 754 mmHg 71%
19:00 +20°C° 0 mm 2 m/S 754 mmHg 76%
20:00 +18°C° 0 mm 2 m/S 754 mmHg 80%
21:00 +18°C° 0 mm 1 m/S 755 mmHg 84%
22:00 +15°C° 0 mm 1 m/S 755 mmHg 88%
23:00 +15°C° 0 mm 1 m/S 755 mmHg 87%

24 Juni, Donnerstag

Zeit Temperatur Niederschläge Wind Luftdruck Luftfeuchtigkeit
00:00 +14°C° 0 mm 1 m/S 755 mmHg 86%
01:00 +14°C° 0 mm 1 m/S 755 mmHg 85%
02:00 +14°C° 0 mm 1 m/S 755 mmHg 86%
03:00 +14°C° 0 mm 1 m/S 754 mmHg 86%
04:00 +14°C° 0 mm 1 m/S 754 mmHg 86%
05:00 +15°C° 0 mm 1 m/S 754 mmHg 87%
06:00 +15°C° 0 mm 1 m/S 754 mmHg 87%
07:00 +16°C° 0 mm 1 m/S 754 mmHg 88%
08:00 +18°C° 0 mm 1 m/S 754 mmHg 86%
09:00 +18°C° 0 mm 1 m/S 754 mmHg 85%
10:00 +19°C° 0 mm 1 m/S 754 mmHg 83%
11:00 +19°C° 0.3 mm 1 m/S 754 mmHg 84%
12:00 +19°C° 0.3 mm 1 m/S 754 mmHg 84%
13:00 +19°C° 0.3 mm 1 m/S 754 mmHg 85%
14:00 +19°C° 0.8 mm 1 m/S 754 mmHg 88%
15:00 +19°C° 0.8 mm 1 m/S 754 mmHg 91%
16:00 +16°C° 0.8 mm 0 m/S 754 mmHg 93%
17:00 +16°C° 0.3 mm 0 m/S 754 mmHg 93%
18:00 +16°C° 0.3 mm 0 m/S 754 mmHg 92%
19:00 +17°C° 0.3 mm 0 m/S 754 mmHg 92%
20:00 +16°C° 0 mm 0 m/S 754 mmHg 93%
21:00 +15°C° 0 mm 0 m/S 754 mmHg 95%
22:00 +14°C° 0 mm 0 m/S 754 mmHg 96%
23:00 +13°C° 0 mm 0 m/S 754 mmHg 96%

25 Juni, Freitag

Zeit Temperatur Niederschläge Wind Luftdruck Luftfeuchtigkeit
00:00 +14°C° 0 mm 1 m/S 754 mmHg 96%
01:00 +14°C° 0 mm 1 m/S 754 mmHg 96%
02:00 +14°C° 0 mm 1 m/S 754 mmHg 96%
03:00 +14°C° 0 mm 1 m/S 754 mmHg 96%
04:00 +13°C° 0 mm 0 m/S 754 mmHg 96%
05:00 +15°C° 0 mm 1 m/S 754 mmHg 95%
06:00 +15°C° 0 mm 1 m/S 754 mmHg 95%
07:00 +16°C° 0 mm 1 m/S 754 mmHg 94%
08:00 +18°C° 0 mm 1 m/S 754 mmHg 88%
09:00 +19°C° 0 mm 1 m/S 754 mmHg 83%
10:00 +19°C° 0 mm 2 m/S 754 mmHg 77%
11:00 +20°C° 0.1 mm 2 m/S 754 mmHg 69%
12:00 +22°C° 0.1 mm 3 m/S 754 mmHg 60%
13:00 +24°C° 0.1 mm 3 m/S 754 mmHg 52%
14:00 +24°C° 0 mm 3 m/S 754 mmHg 51%
15:00 +24°C° 0 mm 3 m/S 754 mmHg 51%
16:00 +23°C° 0 mm 4 m/S 754 mmHg 51%
17:00 +22°C° 0 mm 3 m/S 754 mmHg 57%
18:00 +21°C° 0 mm 3 m/S 754 mmHg 63%
19:00 +20°C° 0 mm 3 m/S 754 mmHg 69%
20:00 +17°C° 0 mm 2 m/S 755 mmHg 75%
21:00 +15°C° 0 mm 1 m/S 755 mmHg 82%
22:00 +13°C° 0 mm 1 m/S 755 mmHg 88%
23:00 +13°C° 0 mm 1 m/S 755 mmHg 90%

26 Juni, Samstag

Zeit Temperatur Niederschläge Wind Luftdruck Luftfeuchtigkeit
00:00 +12°C° 0 mm 1 m/S 755 mmHg 91%
01:00 +12°C° 0 mm 1 m/S 755 mmHg 92%
02:00 +11°C° 0 mm 1 m/S 755 mmHg 93%
03:00 +11°C° 0 mm 1 m/S 755 mmHg 94%
04:00 +11°C° 0 mm 1 m/S 756 mmHg 95%
05:00 +12°C° 0 mm 1 m/S 756 mmHg 91%
06:00 +14°C° 0 mm 1 m/S 756 mmHg 88%
07:00 +15°C° 0 mm 1 m/S 756 mmHg 85%
08:00 +17°C° 0 mm 2 m/S 756 mmHg 79%
09:00 +18°C° 0 mm 2 m/S 756 mmHg 72%
10:00 +20°C° 0 mm 3 m/S 756 mmHg 66%
11:00 +21°C° 0 mm 3 m/S 756 mmHg 64%
12:00 +21°C° 0 mm 3 m/S 755 mmHg 62%
13:00 +22°C° 0 mm 4 m/S 755 mmHg 59%
14:00 +22°C° 0 mm 4 m/S 755 mmHg 60%
15:00 +24°C° 0 mm 3 m/S 755 mmHg 60%
16:00 +24°C° 0 mm 3 m/S 755 mmHg 60%
17:00 +22°C° 0 mm 3 m/S 755 mmHg 66%
18:00 +21°C° 0 mm 3 m/S 755 mmHg 71%
19:00 +21°C° 0 mm 2 m/S 755 mmHg 76%
20:00 +19°C° 0 mm 2 m/S 755 mmHg 79%
21:00 +19°C° 0 mm 1 m/S 755 mmHg 83%
22:00 +16°C° 0 mm 0 m/S 755 mmHg 86%
23:00 +15°C° 0 mm 0 m/S 755 mmHg 89%
Mehr zeigen

Wir brauchen deine Erlaubnis

Meteoprog und unser Service Anbieter werden persönliche Daten aufbewahren, so wie Cookies, Geräte Bezeichnung oder ähnliche Technologien von deinem Gerät und Prozess, so wie Persönliche Daten Inhalte und Werbungen, genauso wie social Media und den Verkehr zu analysieren.

  • Aufbewahrung und/oder Zugang zu deiner Geräte Informationen.

    Cookies, Geräte Bezeichnung oder andere Informationen, können aufbewahrt oder Zugang zu deinem Gerät erhalten, für den Grund, der oben angegeben wird.

  • Personalisierte Werbung und Inhalte, Messungen, Einblick in das Publikum und Produkt Entwicklung.

    Werbungen und Inhalte können personalisiert werden, basierend auf ein Profil. Mehr Daten können besser personalisierte Werbungen und Inhalte hinzufügen. Werbung und Inhalte können gezeigt und gemessen werden. Einblicke über das Publikum, welche die Werbung gesehen haben und den Inhalt, können abgeleitet werden. So wie Daten können genutzt werden, um es zu verbessern oder die Benutzer Erfahrung zu verbessern das System und die Software.

Wenn du “Ich stimme zu” klickst, erlaubst du uns, die Cookies zu benutzen die Geräte Bezeichnung, den Web oder ähnliche Technologien zu benutzen. Deine Settings, können in deinem Gerät bei deinem Browser geändert werden.

Für den bestimmten Zweck, berechtigten Interessen beruhen darauf, mehr als auf den Inhalt. Du kannst mehr darüber in unseren Privaten und Cookie Politik lesen.